Torna al catalogo

STARLINK-32402

AttivoComunicazioniVLEO
NORAD 61708·PAYLOAD·🇺🇸 United States

Lanciato Oct 30, 2024 da Cape Canaveral Space Force Station

Loading…

Prossimi Passaggi (prossime 24 ore)

TLE

AggiornatoSource: CelesTrak SupGP

Epoca: Sep 15, 2026, 02:24 UTC

1 61708C 24196B   26258.10048611  .00030615  00000+0  90433-3 0  2582
2 61708  53.1571 298.6767 0001364  88.0690  26.6857 15.34382385    13

Traccia STARLINK-32402 in tempo reale con AllMySat

Download on the App Store